STARLINK-34601, 65084

Orbit data source: Space-Track

STARLINK-34601, 65084 is a payload satellite owned by SpaceX/Seattle (US) in LEO that was launched on Mon, 04 Aug 2025 UTC via an FALCON 9 launch vehicle from the Air Force Eastern Test Range (AFETR). Payload-class satellites include a variety of spacecraft equipped with specific instruments for various scientific and technological missions. These include communications satellites like Starlink; space stations such as the ISS; scientific satellites like the Hubble; Earth observation satellites from companies like Planet Labs, Umbra, and HawkEye 360; GPS; miniature CubeSats for education and research; and military/defense satellites.

Loading next visibility...
Identifier
65084, 2025-167G
Orbit
LEO
Country
Flag of USUS
Related business
Manufacturer
SpaceX/Seattle
Mission
Operational Commercial Communications
Bus & Motor
STARLINK V2MO, Unknown motor
Mass
575 kg wet, ~530 kg dry
Launch date (UTC)
2025-08-04 (11 months ago)
Launch vehicle
FALCON 9
Launch site
Air Force Eastern Test Range (AFETR)
Object type
Payload
Rocket body
Debris
Shape & HBR
Box + 2 Pan, 17.7 m
Radar Cross Section
36.964 m², Large (>1 m²)

Expand to show TLE details & history
Last TLE update: 14 hours ago

TLE from 14 hours ago
0 STARLINK-34601
1 65084U 25167G   26174.63262241  .00022670  00000-0  67980-3 0  9990
2 65084  53.1584 249.3416 0001315  90.2054 269.9100 15.34412035 49761
Epoch: 2026-06-23T15:10Z
TLE epoch observation values (Epoch: 2026-06-23T15:10:58.576Z)
Latitude
0.00005°
Longitude
109.79617°
Altitude
463.57 km
Speed
7.636 km/s
True Right ascension
16h 37m 21s
True Declination
0° 00' 00"
Sunlit
Object was in full shadow at epoch
Visualization orbit readout
Latitude
Unknown
Longitude
Unknown
Altitude
Unknown
Speed
Unknown
Apparent Right ascension
Unknown
Apparent Declination
Unknown
Sunlit
N/A
Visualization observer readout
Local Sidereal Time
16:39:31
Azimuth
Unknown
Elevation
Unknown
Doppler factor
Unknown
Orbital elements
Apogee altitude
463.824 km
Perigee altitude
462.025 km
Semi-major axis
6,841.062 km
Eccentricity
0.00013
Inclination
53.1584°
RAAN
249.3416°
Arg. of periapsis
90.2054°
True anomaly
269.89493°
Mean anomaly
269.91°
Eccentric anomaly
269.90247°
Mean motion
3.83582 °/min
Orbital period
93.85 mins
BSTAR
0.0006798
Loading maneuver chart data...
Computing Atmospheric mass density...
Loading historical data...
Loading historical data...
Loading historical data...
Loading historical data...
Loading historical data...
Loading historical data...
Loading historical data...

Documentation

Showing up to 5 results
|